{"data":{"norad_id":38991,"intl_designator":"2012-062A","name":"STAR ONE C3","alt_names":[],"object_type":"PAYLOAD","status":"ACTIVE","operator":null,"country":"BRAZ","launch_date":"2012-11-10","launch_site_code":"FRGUI","launch_vehicle":null,"mission":null,"orbit_class":"UNKNOWN","rcs_meters":113.2145,"size_class":null,"mass_kg":null,"dimensions":null,"purposes":["comms"],"wikipedia_slug":null,"has_3d_model":false,"image_url":null,"decayed_at":null,"tle_current":{"epoch":"2026-05-25T03:23:10.627008Z","epoch_age_seconds":56775,"freshness":"FRESH","line1":"1 38991U 12062A   26145.14109522 -.00000251  00000+0  00000+0 0  9990","line2":"2 38991   0.0273 276.3084 0002663 166.8066 135.4173  1.00271546 49535","mean_motion":1.00271546,"eccentricity":0.0002663,"inclination_deg":0.0273,"raan_deg":276.3084,"arg_perigee_deg":166.8066,"mean_anomaly_deg":135.4173,"bstar":0,"rev_number":4953,"period_min":1436.100327006,"perigee_km":35775.433475736,"apogee_km":35797.890447663,"semimajor_km":42164.7989617,"source":"CELESTRAK","updated_at":"2026-05-25T13:38:13.938363Z"}}}